Location: Audinghen
(50.8518°N, 1.6129°E)
Time: 21:23:53
(UTC+00:00)

Cosmos 1626 - Pass Details

Date: 07 August 2020
Orbit: 491 x 494 km, 82.5° (Epoch: 22 September)

Event Time Altitude Azimuth Distance (km) Brightness Sun altitude
Rises 02:31:43 0° 345° (NNW) 2,594 6.3 -15.0°
Reaches altitude 10° 02:33:53 10° 340° (NNW) 1,706 5.2 -14.8°
Maximum altitude 02:37:30 48° 265° (W) 657 2.4 -14.4°
Enters shadow 02:39:17 25° 204° (SSW) 1,021 3.1 -14.3°
